Change the Weather History Date:

Thursday, February 28, 2013

  Actual Average (KBWI) Record (KBWI)
Temperature  
Mean Temperature 42 °F 39 °F  
Max Temperature 48 °F 48 °F 71 °F (1903)
Min Temperature 37 °F 29 °F 5 °F (1934)
Degree Days  
Heating Degree Days 22 26  
Month to date heating degree days 819  
Since 1 July heating degree days 3595  
Cooling Degree Days 0 0  
Month to date cooling degree days 0  
Year to date cooling degree days 0  
Moisture  
Dew Point 30 °F    
Average Humidity 67    
Maximum Humidity 100    
Minimum Humidity 40    
Precipitation  
Precipitation 0.00 in 0.10 in 1.27 in (1939)
Month to date precipitation 2.90  
Year to date precipitation 5.95  
Snow  
Snow 0.00 in 0.20 in 5.20 in (1949)
Month to date snowfall 8.0  
Since 1 July snowfall 18.2  
Snow Depth -    
Sea Level Pressure  
Sea Level Pressure 29.69 in    
Wind  
Wind Speed 5 mph (WNW)    
Max Wind Speed 17 mph    
Max Gust Speed 23 mph    
Visibility 10 miles    
Events      
T = Trace of Precipitation, MM = Missing Value Source: NWS Daily Summary

Daily Weather History Graph

Daily Weather History Graph

Search for Another Location

Airport or City:

Trip Planner

Search our weather history database for the weather conditions in past years. The results will help you decide how hot, cold, wet, or windy it might be!

Date:

Astronomy

Feb. 28, 2013 Rise Set
Actual Time 6:40 AM EST 5:58 PM EST
Civil Twilight 6:13 AM EST 6:25 PM EST
Nautical Twilight 5:42 AM EST 6:56 PM EST
Astronomical Twilight 5:12 AM EST 7:27 PM EST
Moon 9:21 PM EST (2/28) 7:50 AM EST (2/28)
Length of Visible Light 12h 11m
Length of Day
11h 18m
Waning Gibbous, 91% of the Moon is Illuminated
Feb 28
Waning Gibbous
Mar 4
Last Quarter
Mar 11
New
Mar 19
First Quarter
Mar 27
Full

Hourly Weather History & Observations

Time (EST) Temp. Windchill Dew Point Humidity Pressure Visibility Wind Dir Wind Speed Gust Speed Precip Events Conditions
12:06 AM 39.2 °F - 33.8 °F 81% 29.67 in 10.0 mi Calm Calm - N/A   Overcast
12:27 AM 39.2 °F - 35.6 °F 87% 29.66 in 10.0 mi Calm Calm - N/A   Overcast
1:06 AM 39.2 °F - 35.6 °F 87% 29.67 in 10.0 mi Calm Calm - N/A   Overcast
1:27 AM 39.2 °F - 35.6 °F 87% 29.67 in 10.0 mi Calm Calm - N/A   Overcast
1:45 AM 39.2 °F - 35.6 °F 87% 29.67 in 10.0 mi Calm Calm - N/A   Overcast
2:06 AM 39.2 °F - 35.6 °F 87% 29.67 in 10.0 mi Calm Calm - N/A   Overcast
2:27 AM 39.2 °F - 35.6 °F 87% 29.66 in 10.0 mi Calm Calm - N/A   Overcast
2:45 AM 39.2 °F 35.9 °F 35.6 °F 87% 29.67 in 10.0 mi WNW 4.6 mph - N/A   Overcast
3:06 AM 41.0 °F 37.1 °F 35.6 °F 81% 29.67 in 10.0 mi WNW 5.8 mph - N/A   Overcast
3:27 AM 41.0 °F 38.0 °F 35.6 °F 81% 29.67 in 10.0 mi NW 4.6 mph - N/A   Overcast
3:45 AM 41.0 °F - 35.6 °F 81% 29.67 in 10.0 mi Calm Calm - N/A   Overcast
4:06 AM 39.2 °F - 37.4 °F 93% 29.66 in 7.0 mi Calm Calm - N/A   Overcast
4:27 AM 39.2 °F - 37.4 °F 93% 29.66 in 10.0 mi Calm Calm - N/A   Overcast
4:45 AM 39.2 °F - 37.4 °F 93% 29.67 in 7.0 mi Calm Calm - N/A   Overcast
5:06 AM 37.4 °F - 37.4 °F 100% 29.66 in 10.0 mi Calm Calm - N/A   Overcast
5:27 AM 37.4 °F - 37.4 °F 100% 29.67 in 7.0 mi Calm Calm - N/A   Overcast
5:45 AM 37.4 °F - 37.4 °F 100% 29.68 in 5.0 mi Calm Calm - N/A   Overcast
6:06 AM 37.4 °F 33.8 °F 35.6 °F 93% 29.68 in 10.0 mi WNW 4.6 mph - N/A   Overcast
6:27 AM 37.4 °F - 35.6 °F 93% 29.68 in 10.0 mi Calm Calm - N/A   Overcast
7:06 AM 37.4 °F 33.8 °F 33.8 °F 87% 29.69 in 10.0 mi West 4.6 mph - N/A   Overcast
7:27 AM 37.4 °F 33.8 °F 32.0 °F 81% 29.69 in 10.0 mi West 4.6 mph - N/A   Overcast
7:45 AM 37.4 °F 33.8 °F 32.0 °F 81% 29.70 in 10.0 mi West 4.6 mph - N/A   Scattered Clouds
8:06 AM 37.4 °F 32.8 °F 32.0 °F 81% 29.70 in 10.0 mi West 5.8 mph - N/A   Clear
8:27 AM 37.4 °F 34.9 °F 32.0 °F 81% 29.70 in 10.0 mi WNW 3.5 mph - N/A   Clear
8:45 AM 41.0 °F 36.4 °F 30.2 °F 65% 29.70 in 10.0 mi West 6.9 mph - N/A   Clear
9:06 AM 42.8 °F 38.6 °F 30.2 °F 61% 29.70 in 10.0 mi WNW 6.9 mph 16.1 mph N/A   Clear
9:27 AM 44.6 °F 39.7 °F 28.4 °F 53% 29.69 in 10.0 mi West 9.2 mph - N/A   Clear
9:48 AM 44.6 °F 39.2 °F 28.4 °F 53% 29.69 in 10.0 mi West 10.4 mph - N/A   Clear
10:06 AM 46.4 °F 41.1 °F 28.4 °F 50% 29.68 in 10.0 mi WNW 11.5 mph - N/A   Clear
10:27 AM 46.4 °F 41.9 °F 28.4 °F 50% 29.68 in 10.0 mi WNW 9.2 mph 16.1 mph N/A   Clear
10:48 AM 46.4 °F 40.7 °F 28.4 °F 50% 29.68 in 10.0 mi West 12.7 mph 17.3 mph N/A   Clear
11:06 AM 46.4 °F 41.5 °F 24.8 °F 43% 29.68 in 10.0 mi West 10.4 mph - N/A   Clear
11:27 AM 46.4 °F 42.4 °F 23.0 °F 40% 29.67 in 10.0 mi NW 8.1 mph - N/A   Clear
11:48 AM 48.2 °F - 24.8 °F 40% 29.67 in 10.0 mi WNW 13.8 mph 21.9 mph N/A   Clear
12:06 PM 46.4 °F 41.5 °F 24.8 °F 43% 29.67 in 10.0 mi WNW 10.4 mph 20.7 mph N/A   Scattered Clouds
12:27 PM 46.4 °F 39.5 °F 24.8 °F 43% 29.68 in 10.0 mi WNW 17.3 mph 23.0 mph N/A   Mostly Cloudy
12:48 PM 44.6 °F 38.8 °F 24.8 °F 46% 29.67 in 10.0 mi West 11.5 mph - N/A   Overcast
12:51 PM 44.6 °F 38.1 °F 24.8 °F 46% 29.67 in 10.0 mi West 13.8 mph - N/A   Overcast
1:27 PM 44.6 °F 38.8 °F 26.6 °F 49% 29.66 in 10.0 mi WNW 11.5 mph 20.7 mph N/A   Unknown
1:48 PM 44.6 °F 37.8 °F 28.4 °F 53% 29.66 in 10.0 mi West 15.0 mph 19.6 mph N/A   Mostly Cloudy
2:06 PM 44.6 °F 37.4 °F 28.4 °F 53% 29.66 in 10.0 mi West 16.1 mph 21.9 mph N/A   Mostly Cloudy
2:27 PM 44.6 °F 38.4 °F 30.2 °F 57% 29.67 in 10.0 mi WNW 12.7 mph 21.9 mph N/A   Mostly Cloudy
3:06 PM 44.6 °F 37.8 °F 30.2 °F 57% 29.66 in 10.0 mi WNW 15.0 mph - N/A   Mostly Cloudy
4:06 PM 44.6 °F 40.2 °F 28.4 °F 53% 29.66 in 10.0 mi West 8.1 mph - N/A   Overcast
4:27 PM 44.6 °F 38.8 °F 28.4 °F 53% 29.66 in 10.0 mi West 11.5 mph - N/A   Overcast
4:48 PM 42.8 °F 37.5 °F 26.6 °F 53% 29.66 in 10.0 mi West 9.2 mph - N/A   Scattered Clouds
5:06 PM 42.8 °F 37.0 °F 26.6 °F 53% 29.67 in 10.0 mi West 10.4 mph - N/A   Mostly Cloudy
5:27 PM 42.8 °F 38.6 °F 26.6 °F 53% 29.68 in 10.0 mi West 6.9 mph - N/A   Overcast
5:48 PM 42.8 °F 38.0 °F 26.6 °F 53% 29.69 in 10.0 mi WNW 8.1 mph 16.1 mph N/A   Overcast
6:09 PM 42.8 °F 37.0 °F 26.6 °F 53% 29.70 in 10.0 mi West 10.4 mph 16.1 mph N/A   Overcast
6:27 PM 41.0 °F 33.9 °F 26.6 °F 57% 29.71 in 10.0 mi NW 12.7 mph 18.4 mph N/A   Overcast
6:48 PM 41.0 °F 33.5 °F 28.4 °F 61% 29.72 in 10.0 mi WNW 13.8 mph 19.6 mph N/A   Overcast
7:09 PM 41.0 °F 34.7 °F 28.4 °F 61% 29.73 in 10.0 mi West 10.4 mph - N/A   Overcast
7:27 PM 39.2 °F 35.0 °F 28.4 °F 65% 29.73 in 10.0 mi WNW 5.8 mph - N/A   Overcast
7:48 PM 39.2 °F 34.2 °F 30.2 °F 70% 29.73 in 10.0 mi West 6.9 mph - N/A   Overcast
8:09 PM 39.2 °F 35.9 °F 30.2 °F 70% 29.73 in 10.0 mi West 4.6 mph - N/A   Mostly Cloudy
8:27 PM 39.2 °F 35.0 °F 30.2 °F 70% 29.74 in 10.0 mi West 5.8 mph - N/A   Mostly Cloudy
8:48 PM 39.2 °F 35.0 °F 28.4 °F 65% 29.74 in 10.0 mi West 5.8 mph - N/A   Mostly Cloudy
9:09 PM 39.2 °F 34.2 °F 28.4 °F 65% 29.75 in 10.0 mi West 6.9 mph - N/A   Overcast
9:27 PM 39.2 °F 35.9 °F 28.4 °F 65% 29.75 in 10.0 mi West 4.6 mph - N/A   Overcast
9:48 PM 39.2 °F 34.2 °F 28.4 °F 65% 29.74 in 10.0 mi West 6.9 mph - N/A   Overcast
10:09 PM 41.0 °F 35.8 °F 28.4 °F 61% 29.74 in 10.0 mi West 8.1 mph - N/A   Overcast
10:27 PM 41.0 °F 35.8 °F 28.4 °F 61% 29.74 in 10.0 mi West 8.1 mph - N/A   Overcast
10:48 PM 41.0 °F 36.4 °F 28.4 °F 61% 29.73 in 10.0 mi West 6.9 mph - N/A   Overcast
11:27 PM 39.2 °F 35.0 °F 28.4 °F 65% 29.73 in 10.0 mi West 5.8 mph - N/A   Overcast
11:48 PM 41.0 °F 37.1 °F 28.4 °F 61% 29.73 in 10.0 mi WNW 5.8 mph - N/A   Overcast